Regional Weather Roundup
Issued by NWS

Home | Current Version | Previous Version | Text Only | Print | Product List | Glossary Off
Versions: 1 2 3 4 5 6 7 8 9 10 11 12 13 14 15 16 17 18 19 20 21 22 23 24 25 26 27 28 29 30 31 32 33 34 35 36 37 38 39 40 41 42 43 44 45 46 47 48 49 50

650
ASUS43 KLMK 210310
RWRKY
NATIONAL WEATHER SERVICE LOUISVILLE KY
1000 PM EST MON NOV 20 2017

NOTE "FAIR" INDICATES FEW OR NO CLOUDS BELOW 12,000 FEET
WITH NO SIGNIFICANT WEATHER AND/OR OBSTRUCTIONS TO VISIBILITY.

KYZ001>023-026-027-061>063-070>075-210400-
WESTERN AND SOUTH CENTRAL KENTUCKY

CITY           SKY/WX    TMP DP  RH WIND       PRES   REMARKS
PADUCAH        CLEAR     42  23  46 S5        30.02F
HENDERSON      CLEAR     40  26  57 S7        30.02F
OWENSBORO      CLEAR     39  27  62 S7        30.04S WCI  34
HOPKINSVILLE   CLEAR     43  21  42 S6        30.06S
BOWLING GREEN  CLEAR     35  27  72 CALM      30.08R
GLASGOW        CLEAR     33  24  70 CALM      30.08R
$$

KYZ024-025-028>034-038-045-046-053-210400-
NORTH CENTRAL KENTUCKY

CITY           SKY/WX    TMP DP  RH WIND       PRES   REMARKS
LOUISVILLE/SDF CLEAR     39  25  57 SE8       30.04F WCI  33
LOUISVILLE/LOU CLEAR     39  25  57 S8        30.05S WCI  33
FORT KNOX      CLEAR     37  23  57 S8        30.03F HAZE    WCI  31
$$

KYZ035>037-039>044-047>052-055>060-089>105-210400-
NORTHEAST KENTUCKY

CITY           SKY/WX    TMP DP  RH WIND       PRES   REMARKS
LEXINGTON      CLEAR     38  23  55 S6        30.06S WCI  33
COVINGTON      CLEAR     39  27  62 S10       30.01F WCI  32
FRANKFORT      CLEAR     31  24  75 CALM      30.04F
$$

KYZ054-064>069-076>088-106>120-210400-
SOUTHEAST KENTUCKY

CITY           SKY/WX    TMP DP  RH WIND       PRES   REMARKS
JACKSON        CLEAR     40  22  48 SW5       30.08S
LONDON         CLEAR     37  24  59 S5        30.09F WCI  33
SOMERSET       CLEAR     39  27  60 S3        30.11R
MIDDLESBORO    CLOUDY    33  28  79 CALM      30.14S
MONTICELLO     CLEAR     38  25  59 E6        30.11S WCI  33
$$





USA.gov is the U.S. government's official web portal to all federal, state and local government web resources and services.